National Oceanic Atmosphere Administration National Weather Service Headquarters National Weather Service Headquarters
NOAA logo WFO Anchorage Scalable transition graphic NWS logo
Transition from title bar to navgation bar   Aviation Weather 20 AKDT 
blankspace Home   |   Mobile   |   Social Media   |   Mesonet   |   Surface Map   |   Radar   |   Submit Storm Reports   |   News =04 GMT 

LocalForecast by City, St or Zip Code

spacer

Forecasts/Products
  Public
  Forecast Discussion
    - With Glossary
  Aviation
  Marine
  Hydrology(RFC)
  Rivers & Lakes AHPS
  Ice Desk
  TV Weather
  Fire Weather
  Avalanche
  Travel 511
  Graphical
  xml logo RSS Feeds
  Marine FTPMail

spacer

Data
  Mesonet
  Model Graphics
  Local Model
  Observations
  Marine Obs
  Satellite/Radar
  Vent Factor
  Soaring Index
  Weather Links

spacer

Climate
  PAFC Climate
  Interactive Climate
  PAFC Records
  Local
  National
  More

spacer

Outreach
  About Us
  Community Outreach
  Kids' Page
  Tour/Speaker Request
  Weather Classroom
  Social Media

spacer

Reports
  COOP Observers
  Local Storm Reports
  Spotter Page
  Submit a Storm Report

spacer

Miscellaneous
  Archived Alaska Weather Stories
  Student Career Opportunities
  Research Papers

spacer

Print Friendly/
Low Bandwidth

  Public Forecasts
  Marine Forecasts

spacer

Contact Us
  mailto pafcweb

spacer

Facebook Follow the National Weather Service in Alaska on Twitter
USA.gov is the U.S. government's official web portal to all federal, state and local government web resources and services.


 ICAO ID:   AAWU Graphics

Internet access to TAFs and METAR observations is for planning purposes only. We can not guarantee the timeliness of internet products. Before flying please get a formal pilot briefing (1-800-992-7433) and ALWAYS file a Flight Plan!Pilot briefings are provided to licensed aircraft pilots, ONLY! Others may not use the above number to obtain weather information.

Check out the Key to TAFs and METARs for help with decoding the information.

A 12 hour summary of TAFs can be found here.

PAEN TAF
PAEN 010257Z 0103/0124  21012KT P6SM -SHRA BKN070
     FM011200 18008KT P6SM BKN080
     FM012000 24008KT P6SM BKN080=




METAR PAEN 010353Z 21013KT 10SM SCT070 13/11 A3015 RMK AO2 SLP212
     T01280106=
METAR PAEN 010353Z 21013KT 10SM SCT070 13/11 A3015=
METAR PAEN 010253Z 21012KT 10SM FEW070 OVC100 12/10 A3014 RMK AO2 SLP208
     60001 T01220100 51009=
METAR PAEN 010253Z 21012KT 10SM FEW070 OVC100 12/10 A3014=
SPECI PAEN 010227Z 21012KT 10SM FEW008 SCT075 BKN100 12/11 A3014 RMK AO2
     T01220106=
PAEN 010227Z 21012KT 10SM FEW008 SCT075 BKN100 12/11 A3014=
METAR PAEN 010153Z 22013KT 10SM BKN070 BKN090 BKN100 12/10 A3013 RMK
    AO2 SLP206 T01220100=
METAR PAEN 010153Z 22013KT 10SM BKN070 BKN090 BKN100 12/10 A3013=
METAR PAEN 010053Z 21008KT 10SM FEW026 BKN060 BKN090 13/12 A3012 RMK AO2
     RAB25E51 SLP202 P0001 T01330117=
METAR PAEN 010053Z 21008KT 10SM FEW026 BKN060 BKN090 13/12 A3012=


National Weather Service
Anchorage Forecast Office
6930 Sand Lake Road
Anchorage, Ak 99502
(907) 266-5105 M-F/7-5pm
About Us
Career Opportunities
Glossary
Disclaimer
Privacy Policy
Credits
Alaska Weather Information Line:
1-800-472-0391